Weather History for KSTK - March, 2014

Change the Weather History Date:

Tuesday, March 11, 2014

  Actual Average Record
Temperature  
Mean Temperature 42 °F -  
Max Temperature 55 °F 54 °F 71 °F (2015)
Min Temperature 30 °F 24 °F 23 °F (2015)
Degree Days  
Heating Degree Days 22    
Moisture  
Dew Point 32 °F    
Average Humidity 76    
Maximum Humidity 93    
Minimum Humidity 41    
Precipitation  
Precipitation 0.00 in - - ()
Sea Level Pressure  
Sea Level Pressure 29.95 in    
Wind  
Wind Speed 15 mph (North)    
Max Wind Speed 31 mph    
Max Gust Speed 37 mph    
Visibility 9 miles    
Events Snow    
Averages and records for this station are not official NWS values.
T = Trace of Precipitation, MM = Missing Value Source: NWS Daily Summary

Daily Weather History Graph

Daily Weather History Graph

Search for Another Location

Airport or City:

Trip Planner

Search our weather history database for the weather conditions in past years. The results will help you decide how hot, cold, wet, or windy it might be!

Date:

Astronomy

Mar. 11, 2014 Rise Set
Actual Time 7:11 AM MDT 6:55 PM MDT
Civil Twilight 6:43 AM MDT 7:22 PM MDT
Nautical Twilight 6:12 AM MDT 7:54 PM MDT
Astronomical Twilight 5:40 AM MDT 8:26 PM MDT
Moon 2:33 PM MDT (3/11) 4:07 AM MDT (3/11)
Length of Visible Light 12h 38m
Length of Day
11h 44m
Waxing Gibbous, 78% of the Moon is Illuminated
Mar 11
Waxing Gibbous
Mar 16
Full
Mar 23
Last Quarter
Mar 30
New
Apr 7
First Quarter

Hourly Weather History & Observations

Time (MDT) Temp. Windchill Dew Point Humidity Pressure Visibility Wind Dir Wind Speed Gust Speed Precip Events Conditions
12:10 AM 46.4 °F 41.5 °F 35.6 °F 66% 29.56 in 10.0 mi North 10.4 mph - N/A   Clear
12:35 AM 50.0 °F - 33.8 °F 54% 29.57 in 10.0 mi North 12.7 mph - N/A   Clear
12:50 AM 50.0 °F - 33.8 °F 54% 29.57 in 10.0 mi North 12.7 mph - N/A   Clear
1:15 AM 50.0 °F - 32.0 °F 50% 29.57 in 10.0 mi North 10.4 mph - N/A   Clear
1:35 AM 55.4 °F - 32.0 °F 41% 29.57 in 10.0 mi North 20.7 mph - N/A   Clear
1:50 AM 53.6 °F - 32.0 °F 44% 29.58 in 10.0 mi North 19.6 mph - N/A   Clear
2:15 AM 53.6 °F - 32.0 °F 44% 29.58 in 10.0 mi North 20.7 mph - N/A   Clear
2:35 AM 53.6 °F - 32.0 °F 44% 29.59 in 10.0 mi North 16.1 mph 21.9 mph N/A   Clear
2:55 AM 53.6 °F - 32.0 °F 44% 29.59 in 10.0 mi NNW 19.6 mph 24.2 mph N/A   Clear
3:15 AM 51.8 °F - 32.0 °F 47% 29.61 in 10.0 mi North 12.7 mph - N/A   Clear
3:35 AM 51.8 °F - 32.0 °F 47% 29.62 in 10.0 mi North 11.5 mph 19.6 mph N/A   Clear
3:55 AM 50.0 °F - 32.0 °F 50% 29.62 in 10.0 mi North 11.5 mph - N/A   Clear
4:15 AM 50.0 °F - 32.0 °F 50% 29.62 in 10.0 mi North 9.2 mph - N/A   Clear
4:30 AM 50.0 °F - 32.0 °F 50% 29.62 in 10.0 mi North 12.7 mph 17.3 mph N/A   Clear
4:50 AM 50.0 °F - 32.0 °F 50% 29.62 in 10.0 mi NNW 16.1 mph - N/A   Clear
5:10 AM 50.0 °F - 32.0 °F 50% 29.62 in 10.0 mi NNW 16.1 mph 20.7 mph N/A   Clear
5:30 AM 48.2 °F - 32.0 °F 54% 29.63 in 10.0 mi NNW 18.4 mph 23.0 mph N/A   Clear
5:55 AM 46.4 °F 41.9 °F 32.0 °F 57% 29.65 in 10.0 mi NNE 9.2 mph - N/A   Clear
6:15 AM 42.8 °F 38.0 °F 32.0 °F 66% 29.66 in 10.0 mi NNE 8.1 mph - N/A   Clear
6:35 AM 42.8 °F 36.2 °F 35.6 °F 76% 29.69 in 10.0 mi NNE 12.7 mph - N/A   Clear
6:55 AM 41.0 °F 35.8 °F 37.4 °F 87% 29.71 in 10.0 mi NNE 8.1 mph - N/A   Clear
7:15 AM 39.2 °F 33.6 °F 37.4 °F 93% 29.72 in 10.0 mi NNE 8.1 mph - N/A   Scattered Clouds
7:35 AM 41.0 °F 35.8 °F 37.4 °F 87% 29.75 in 10.0 mi North 8.1 mph - N/A   Mostly Cloudy
7:55 AM 41.0 °F 32.5 °F 37.4 °F 87% 29.77 in 10.0 mi NNE 17.3 mph 25.3 mph N/A   Overcast
8:10 AM 39.2 °F 30.2 °F 35.6 °F 87% 29.79 in 10.0 mi NNE 17.3 mph 26.5 mph N/A   Overcast
8:35 AM 37.4 °F 26.9 °F 35.6 °F 93% 29.82 in 10.0 mi NNE 20.7 mph 27.6 mph N/A   Overcast
8:50 AM 37.4 °F 27.5 °F 35.6 °F 93% 29.83 in 10.0 mi NNE 18.4 mph 26.5 mph N/A   Overcast
9:15 AM 37.4 °F 27.8 °F 33.8 °F 87% 29.85 in 10.0 mi North 17.3 mph 25.3 mph N/A   Overcast
9:35 AM 37.4 °F 27.8 °F 33.8 °F 87% 29.86 in 10.0 mi North 17.3 mph 23.0 mph N/A   Overcast
9:55 AM 37.4 °F 28.2 °F 33.8 °F 87% 29.89 in 10.0 mi NNE 16.1 mph 21.9 mph N/A   Overcast
10:15 AM 37.4 °F 28.2 °F 33.8 °F 87% 29.91 in 10.0 mi North 16.1 mph 26.5 mph N/A   Overcast
10:35 AM 35.6 °F 27.1 °F 33.8 °F 93% 29.92 in 10.0 mi NNE 12.7 mph 24.2 mph N/A   Overcast
10:55 AM 35.6 °F 24.2 °F 32.0 °F 87% 29.94 in 10.0 mi NNE 21.9 mph 28.8 mph N/A   Overcast
11:15 AM 35.6 °F 24.2 °F 33.8 °F 93% 29.96 in 5.0 mi NNE 21.9 mph 27.6 mph N/A Snow Light Snow
11:35 AM 35.6 °F 24.8 °F 32.0 °F 87% 29.98 in 4.0 mi North 19.6 mph 27.6 mph N/A Snow Light Snow
11:55 AM 37.4 °F 27.2 °F 33.8 °F 87% 29.99 in 3.0 mi NNE 19.6 mph 27.6 mph N/A Snow Light Snow
12:15 PM 35.6 °F 24.5 °F 33.8 °F 93% 30.00 in 1.8 mi NNE 20.7 mph 27.6 mph N/A Snow Light Snow
12:35 PM 35.6 °F 24.5 °F 33.8 °F 93% 30.02 in 1.5 mi North 20.7 mph 28.8 mph N/A Snow Light Snow
12:55 PM 35.6 °F 24.2 °F 33.8 °F 93% 30.03 in 1.5 mi North 21.9 mph 32.2 mph N/A Snow Light Snow
1:15 PM 35.6 °F 24.8 °F 33.8 °F 93% 30.04 in 2.5 mi North 19.6 mph 36.8 mph N/A Snow Light Snow
1:35 PM 35.6 °F 23.4 °F 33.8 °F 93% 30.06 in 2.5 mi NNE 25.3 mph 33.4 mph N/A Snow Light Snow
1:55 PM 35.6 °F 24.2 °F 32.0 °F 87% 30.07 in 10.0 mi NNE 21.9 mph 36.8 mph N/A   Overcast
2:15 PM 37.4 °F 26.6 °F 33.8 °F 87% 30.08 in 10.0 mi North 21.9 mph 32.2 mph N/A   Overcast
2:35 PM 37.4 °F 26.6 °F 33.8 °F 87% 30.09 in 5.0 mi North 21.9 mph 33.4 mph N/A Snow Light Snow
2:55 PM 37.4 °F 24.8 °F 33.8 °F 87% 30.11 in 7.0 mi North 31.1 mph 36.8 mph N/A   Overcast
3:15 PM 37.4 °F 26.4 °F 33.8 °F 87% 30.12 in 7.0 mi North 23.0 mph 34.5 mph N/A Snow Light Snow
3:35 PM 37.4 °F 25.9 °F 33.8 °F 87% 30.13 in 5.0 mi North 25.3 mph 33.4 mph N/A Snow Light Snow
3:55 PM 37.4 °F 26.4 °F 32.0 °F 81% 30.14 in 10.0 mi North 23.0 mph 33.4 mph N/A   Overcast
4:15 PM 39.2 °F 28.0 °F 32.0 °F 75% 30.15 in 10.0 mi North 26.5 mph 31.1 mph N/A   Overcast
4:30 PM 41.0 °F 31.1 °F 32.0 °F 70% 30.15 in 10.0 mi North 23.0 mph 32.2 mph N/A   Overcast
4:55 PM 41.0 °F 31.1 °F 32.0 °F 70% 30.16 in 10.0 mi North 23.0 mph 32.2 mph N/A   Overcast
5:15 PM 41.0 °F 30.7 °F 32.0 °F 70% 30.17 in 10.0 mi North 25.3 mph 34.5 mph N/A   Mostly Cloudy
5:35 PM 41.0 °F 32.2 °F 32.0 °F 70% 30.18 in 10.0 mi North 18.4 mph 28.8 mph N/A   Mostly Cloudy
5:50 PM 39.2 °F 29.0 °F 30.2 °F 70% 30.19 in 10.0 mi North 21.9 mph 27.6 mph N/A   Overcast
6:05 PM 39.2 °F 29.6 °F 32.0 °F 75% 30.20 in 10.0 mi North 19.6 mph 29.9 mph N/A   Overcast
6:35 PM 37.4 °F 26.9 °F 32.0 °F 81% 30.21 in 10.0 mi NNW 20.7 mph 29.9 mph N/A   Mostly Cloudy
6:50 PM 37.4 °F 27.8 °F 32.0 °F 81% 30.22 in 10.0 mi NNW 17.3 mph - N/A   Overcast
7:10 PM 37.4 °F 27.5 °F 32.0 °F 81% 30.24 in 10.0 mi North 18.4 mph 27.6 mph N/A   Overcast
7:35 PM 35.6 °F 27.5 °F 32.0 °F 87% 30.25 in 10.0 mi North 11.5 mph - N/A   Overcast
7:55 PM 35.6 °F 28.6 °F 32.0 °F 87% 30.26 in 10.0 mi North 9.2 mph - N/A   Overcast
8:15 PM 35.6 °F 29.2 °F 32.0 °F 87% 30.26 in 10.0 mi North 8.1 mph - N/A   Mostly Cloudy
8:35 PM 33.8 °F 27.7 °F 32.0 °F 93% 30.27 in 10.0 mi North 6.9 mph - N/A   Scattered Clouds
8:55 PM 33.8 °F 23.9 °F 28.4 °F 81% 30.28 in 10.0 mi NNW 15.0 mph - N/A   Clear
9:15 PM 33.8 °F 25.3 °F 28.4 °F 81% 30.29 in 10.0 mi NNW 11.5 mph - N/A   Clear
9:35 PM 32.0 °F 23.6 °F 28.4 °F 87% 30.30 in 10.0 mi NNW 10.4 mph - N/A   Clear
9:55 PM 32.0 °F 23.0 °F 26.6 °F 80% 30.30 in 10.0 mi NNW 11.5 mph - N/A   Clear
10:10 PM 32.0 °F 22.5 °F 26.6 °F 80% 30.30 in 10.0 mi NNW 12.7 mph - N/A   Clear
10:35 PM 32.0 °F 21.6 °F 26.6 °F 80% 30.30 in 10.0 mi NNW 15.0 mph - N/A   Clear
10:55 PM 32.0 °F 22.1 °F 26.6 °F 80% 30.30 in 10.0 mi NNW 13.8 mph - N/A   Clear
11:05 PM 32.0 °F 23.0 °F 26.6 °F 80% 30.30 in 10.0 mi NNW 11.5 mph - N/A   Clear
11:35 PM 30.2 °F 21.9 °F 26.6 °F 86% 30.30 in 10.0 mi NW 9.2 mph - N/A   Clear
11:55 PM 30.2 °F 21.9 °F 26.6 °F 86% 30.30 in 10.0 mi NW 9.2 mph - N/A   Clear